Wind_Speed
6 6 7 7 7 8 9 10 10 11 11 10 10 12 13 15 15 17 19 6 8 9 11 12 10 8 6 12 14 18 4 11 13 14 18 18 15 12 19 24 17 9 27 39 39
6 6 7 7 8 8 10 11 11 13 13 13 12 12 14 17 20 16 5 5 6 3 3 3 7 7 10 7 9 8 7 12 7 10 13 21 25 8 9 33 33 6 18 43 39
7 7 8 9 10 11 12 12 13 13 14 15 15 15 15 17 14 3 3 3 2 9 8 5 2 8 14 19 23 11 14 7 17 24 31 25 23 19 11 9 30 22 35 44 45
9 10 10 11 12 12 13 14 15 15 16 17 17 16 14 11 4 5 4 8 10 12 10 4 5 11 4 7 12 11 16 22 26 35 30 16 27 13 22 28 37 20 33 49 53
11 11 12 13 13 13 15 15 16 18 19 18 17 16 12 8 14 16 16 14 13 12 7 3 11 13 8 8 16 16 13 25 28 33 37 33 26 15 20 26 35 24 32 47 52
11 12 13 14 13 14 15 16 17 18 18 18 16 13 7 7 6 8 11 14 14 5 6 8 8 11 15 14 9 13 18 19 26 26 29 26 23 22 31 25 39 32 35 43 45
13 14 14 15 15 14 15 16 18 18 17 17 13 10 11 23 4 2 7 9 8 9 11 12 13 15 7 8 19 23 15 15 21 18 14 25 16 27 30 22 40 26 37 33 27
14 14 15 15 15 15 16 15 17 17 16 16 9 5 11 5 6 19 16 18 12 10 13 13 13 15 14 15 20 12 8 8 5 12 21 17 26 19 29 27 33 26 35 39 22
14 15 15 15 15 16 16 15 15 16 14 11 2 4 11 5 10 8 15 17 17 19 21 14 13 16 13 6 7 7 12 13 10 14 10 11 19 11 31 29 27 25 33 30 33
15 15 15 15 16 17 15 15 10 10 4 5 4 8 10 8 4 9 10 12 17 15 18 18 12 7 6 6 14 7 12 10 15 16 13 21 20 13 33 28 25 29 36 38 38
16 15 15 15 14 14 17 11 9 4 8 11 15 14 25 25 26 23 18 20 21 23 13 19 9 18 9 16 20 16 13 14 15 18 21 16 20 17 26 30 19 31 34 34 37
16 14 14 14 9 13 14 11 10 11 14 26 24 26 19 16 21 18 13 18 18 18 14 12 23 16 15 19 20 22 21 21 17 17 15 17 19 15 22 24 28 27 36 41 36
14 15 15 13 5 11 9 9 9 13 6 14 5 5 20 16 13 18 30 24 18 19 17 21 22 17 22 21 22 21 18 16 17 17 20 12 16 19 19 29 30 31 42 40 47
14 17 16 13 4 15 3 15 11 7 3 3 2 12 30 30 7 35 26 27 20 21 22 19 18 22 24 25 23 22 16 15 14 12 14 8 13 15 21 23 21 29 32 39 43
16 16 12 17 8 12 14 20 2 1 4 10 10 12 33 20 25 20 32 29 16 20 21 22 10 20 24 17 17 25 18 17 16 13 12 21 6 13 16 24 21 23 36 37 36
18 24 15 19 9 12 14 6 3 1 4 8 22 20 23 20 23 30 29 29 20 12 18 21 17 11 16 16 22 17 18 21 10 6 9 22 8 15 14 26 20 13 36 39 43
21 23 19 21 24 17 11 8 1 3 13 13 20 22 17 17 21 20 20 11 8 7 11 14 15 16 20 19 20 12 13 5 5 4 10 18 10 13 16 22 21 18 24 38 42
15 19 18 22 19 17 8 2 7 13 11 16 17 19 15 18 15 17 19 8 4 11 13 6 4 14 5 7 8 15 12 4 8 9 12 15 8 13 19 9 13 30 37 37 42
11 18 15 18 26 14 2 6 1 8 12 13 14 13 13 15 12 15 17 4 5 9 9 6 6 15 11 6 4 4 8 15 7 6 3 4 7 16 23 11 9 17 31 30 45
7 7 21 19 10 18 6 8 4 6 10 11 10 10 14 14 14 14 9 3 6 10 6 5 7 8 9 5 6 8 9 4 3 7 9 6 10 6 9 9 14 16 24 32 48
8 6 16 27 11 12 4 4 3 15 14 7 10 15 12 11 14 14 7 10 4 7 7 4 3 9 11 4 6 7 11 5 3 3 2 3 5 12 21 24 12 13 28 29 44
13 4 17 12 13 10 4 8 12 16 22 8 10 11 13 14 10 12 11 5 2 6 6 3 4 6 10 13 10 8 5 7 4 2 8 4 3 15 21 23 23 12 32 36 45
8 7 20 18 3 4 10 9 13 13 12 10 8 12 10 7 7 8 7 14 5 4 3 6 3 6 5 4 5 4 8 8 4 3 5 5 4 16 24 24 31 25 8 39 43
5 3 6 22 20 7 8 7 11 19 11 14 10 10 8 7 6 5 10 5 9 7 2 5 3 2 2 6 8 5 17 16 6 1 6 7 10 17 21 21 27 39 18 37 44
5 3 8 3 11 10 11 11 15 17 9 22 5 14 4 3 6 6 9 9 8 4 8 2 4 7 10 8 24 25 21 22 14 13 5 5 10 18 16 16 25 35 34 14 16
8 5 13 16 22 10 10 10 16 15 9 9 11 18 3 4 4 10 10 6 4 9 9 3 3 5 14 15 27 24 27 26 14 15 13 11 9 13 18 27 34 32 33 29 27
17 15 14 17 10 7 11 15 14 19 13 21 7 6 10 5 15 7 10 9 7 5 3 3 3 4 2 8 6 14 24 13 15 14 9 11 8 16 18 23 31 33 34 30 29
Wind_Direction
18 10 3 355 350 345 343 338 333 327 326 326 324 320 316 313 310 297 289 249 262 299 301 286 267 261 217 250 245 255 241 241 240 236 241 268 285 324 311 298 320 290 169 159 147
4 354 344 338 334 333 332 331 330 327 327 326 326 324 327 325 324 304 287 251 244 309 322 67 309 295 241 249 226 194 224 235 238 248 251 259 274 246 228 271 303 64 147 153 155
347 339 331 329 329 328 329 330 328 326 326 327 329 328 334 332 333 302 41 109 227 318 306 260 234 296 280 250 237 241 244 264 264 260 257 265 265 219 198 242 261 151 152 161 165
338 334 332 331 329 326 326 327 328 329 328 327 325 322 323 321 298 295 277 285 291 306 305 233 257 258 246 234 257 261 250 242 256 267 276 274 277 249 218 218 250 206 188 175 173
336 333 333 331 327 325 325 325 324 325 324 320 314 311 315 292 260 267 276 282 283 291 260 268 257 266 240 258 251 253 264 265 251 252 258 269 268 272 235 215 236 219 194 181 183
333 332 331 329 325 323 323 320 320 321 320 317 309 300 285 256 297 266 273 272 264 241 259 238 260 276 291 277 271 283 292 280 273 266 255 250 261 262 257 259 215 227 201 195 198
333 332 331 329 326 324 321 316 317 321 320 317 303 293 258 253 226 73 258 291 240 248 251 252 263 263 281 321 279 270 279 288 273 277 270 254 261 249 254 259 221 209 187 182 200
336 334 332 330 327 325 324 318 313 318 317 320 294 270 258 286 223 228 236 259 271 244 245 253 262 282 286 273 289 290 283 263 275 258 268 255 246 258 257 251 219 179 183 185 210
342 339 335 332 331 331 331 322 303 305 308 312 275 276 264 304 243 270 234 253 251 256 251 240 242 249 264 268 280 230 256 258 264 249 239 241 251 244 257 248 212 159 174 193 205
343 341 339 340 340 339 347 327 313 309 317 318 263 276 263 259 247 300 279 249 252 263 272 253 221 224 231 223 229 221 237 251 255 262 252 250 251 233 248 261 195 149 161 179 183
346 345 345 346 350 6 4 15 359 20 328 254 283 251 287 285 285 297 295 297 262 266 246 247 236 226 212 227 249 263 260 250 242 235 251 254 245 231 236 248 228 156 164 171 186
350 349 349 349 7 27 24 49 19 321 297 290 273 270 279 287 272 304 294 274 272 264 245 222 238 246 227 244 243 237 246 259 273 269 257 255 250 231 227 239 231 163 166 180 196
350 357 357 348 12 18 359 23 337 335 302 300 290 21 37 8 338 314 330 323 318 274 240 234 248 230 243 241 245 250 242 245 245 260 270 270 262 246 234 229 232 223 177 187 186
358 0 0 7 45 1 52 338 344 359 340 250 71 19 9 357 296 327 325 324 296 293 298 254 257 248 243 239 233 246 243 248 258 260 261 229 263 257 224 222 227 212 196 183 188
12 14 19 18 16 354 323 315 31 295 72 345 35 355 352 347 320 354 336 328 315 294 284 268 295 284 254 263 269 236 235 235 237 255 263 270 259 265 221 213 213 213 205 197 182
34 22 20 18 11 350 344 25 21 141 249 19 5 350 340 354 352 345 335 325 315 310 273 281 227 265 271 269 275 285 290 238 211 241 260 261 225 265 265 201 207 203 202 199 208
39 29 37 22 4 359 4 348 346 39 358 359 344 343 339 356 346 338 336 14 354 305 290 263 240 239 235 246 283 299 270 210 233 237 242 255 250 246 272 215 194 204 173 193 198
48 40 45 26 15 360 359 28 50 11 5 344 341 329 344 340 333 346 332 360 6 3 304 321 234 226 218 219 203 297 256 199 198 218 240 255 237 250 272 209 184 193 202 188 185
69 49 38 22 34 36 55 46 53 348 336 331 326 339 339 329 329 341 333 47 341 312 2 311 310 328 304 343 123 267 220 245 224 270 313 243 226 267 261 225 209 212 202 187 179
55 43 26 23 49 49 62 83 352 324 331 332 329 329 321 328 338 337 323 239 314 323 6 308 287 297 353 26 238 188 273 249 190 213 231 262 252 228 262 219 217 236 199 187 162
33 81 30 38 27 34 74 37 323 345 345 319 318 313 305 313 323 326 294 309 215 305 329 11 294 312 328 222 226 170 225 232 112 229 228 220 230 4 3 342 236 229 198 162 160
55 54 7 7 29 25 14 5 345 358 347 330 314 313 315 331 313 313 290 256 194 40 358 15 314 280 261 275 292 292 272 181 148 152 247 281 292 24 14 356 4 299 192 157 171
71 45 34 37 61 2 346 352 351 356 344 356 318 326 316 292 304 290 312 302 60 76 27 326 320 311 316 115 317 7 252 207 184 145 244 292 281 16 21 354 3 4 45 150 159
89 26 349 32 21 41 352 350 351 353 335 357 309 330 328 313 318 308 310 327 80 125 113 343 293 295 298 292 254 349 34 41 43 17 274 344 32 23 25 353 2 11 1 156 163
51 10 46 344 2 30 2 354 353 359 18 358 316 3 6 302 329 1 348 340 3 49 352 78 262 305 311 302 58 54 49 57 62 19 60 33 17 32 32 14 16 23 32 89 144
60 24 27 38 24 14 358 352 7 355 356 0 359 335 346 21 339 317 337 357 352 338 331 340 309 324 106 100 70 56 33 39 30 13 34 357 44 18 46 37 30 24 32 33 32
57 50 50 26 11 20 10 360 10 5 347 13 350 316 326 313 312 302 312 297 296 312 291 289 322 337 72 38 3 42 20 3 41 27 355 18 320 6 43 41 28 21 21 20 25
Height
1515 1514 1513 1512 1511 1510 1509 1508 1506 1505 1503 1502 1500 1498 1496 1494 1492 1490 1487 1489 1488 1490 1491 1491 1493 1496 1497 1498 1500 1500 1506 1502 1500 1497 1488 1487 1487 1486 1486 1489 1482 1487 1484 1490 1500
1514 1513 1512 1511 1510 1508 1507 1506 1505 1503 1502 1500 1499 1496 1494 1490 1487 1483 1484 1484 1487 1489 1490 1490 1492 1495 1497 1495 1496 1495 1498 1493 1488 1486 1487 1487 1486 1486 1491 1491 1489 1487 1486 1494 1496
1513 1512 1511 1509 1508 1506 1505 1504 1502 1501 1499 1497 1495 1493 1490 1487 1484 1480 1481 1483 1486 1487 1488 1489 1491 1493 1493 1494 1491 1487 1488 1489 1486 1484 1486 1484 1481 1485 1485 1488 1487 1497 1493 1491 1493
1512 1511 1510 1508 1506 1504 1502 1501 1499 1498 1496 1494 1492 1490 1488 1487 1487 1479 1480 1482 1483 1484 1485 1486 1488 1491 1491 1491 1487 1488 1484 1484 1485 1484 1482 1482 1479 1477 1477 1476 1482 1492 1488 1487 1485
1512 1510 1508 1506 1504 1502 1500 1498 1497 1495 1493 1491 1490 1488 1486 1484 1477 1478 1479 1480 1481 1482 1483 1485 1486 1488 1488 1484 1484 1482 1481 1479 1479 1478 1476 1477 1475 1476 1472 1475 1475 1484 1488 1489 1486
1510 1508 1506 1504 1502 1500 1498 1496 1494 1492 1490 1489 1487 1485 1485 1485 1475 1475 1477 1478 1480 1480 1482 1484 1485 1486 1483 1480 1482 1478 1476 1473 1472 1471 1472 1472 1469 1471 1464 1470 1470 1475 1481 1486 1491
1508 1506 1504 1502 1500 1498 1496 1494 1492 1490 1488 1486 1484 1483 1482 1474 1475 1474 1475 1476 1477 1478 1480 1482 1483 1485 1482 1480 1477 1476 1476 1470 1465 1467 1467 1468 1466 1453 1462 1465 1464 1466 1474 1482 1492
1507 1505 1503 1500 1498 1496 1494 1491 1489 1487 1485 1483 1481 1480 1475 1470 1470 1470 1473 1474 1476 1476 1478 1479 1480 1480 1480 1480 1477 1477 1475 1477 1463 1463 1461 1467 1456 1452 1457 1458 1458 1461 1463 1469 1483
1506 1503 1501 1499 1496 1494 1491 1488 1485 1483 1482 1481 1481 1480 1471 1470 1470 1470 1471 1471 1473 1473 1474 1475 1477 1478 1480 1482 1485 1477 1476 1472 1464 1456 1457 1457 1452 1450 1451 1450 1453 1456 1459 1464 1465
1505 1502 1499 1497 1494 1492 1489 1485 1481 1480 1480 1479 1480 1484 1471 1469 1469 1471 1470 1470 1470 1471 1472 1473 1472 1474 1476 1483 1476 1477 1475 1471 1465 1457 1453 1450 1449 1447 1445 1443 1447 1454 1456 1458 1464
1503 1500 1498 1496 1493 1491 1487 1482 1484 1482 1481 1479 1475 1470 1469 1466 1464 1466 1467 1467 1467 1467 1468 1469 1471 1463 1469 1470 1466 1465 1463 1460 1454 1450 1451 1447 1444 1443 1438 1439 1441 1448 1451 1453 1456
1502 1500 1497 1495 1493 1492 1489 1488 1492 1491 1477 1471 1467 1469 1465 1464 1465 1465 1466 1466 1465 1461 1461 1462 1451 1455 1460 1460 1458 1458 1459 1454 1448 1444 1444 1442 1441 1436 1430 1427 1434 1441 1445 1448 1451
1501 1499 1496 1493 1492 1492 1492 1491 1490 1487 1484 1467 1463 1465 1468 1465 1466 1465 1466 1462 1459 1453 1450 1450 1440 1451 1451 1450 1451 1446 1448 1448 1449 1442 1435 1442 1439 1432 1424 1424 1426 1430 1433 1439 1443
1501 1498 1495 1492 1493 1491 1490 1488 1488 1487 1490 1466 1465 1469 1467 1468 1463 1465 1464 1465 1454 1454 1446 1435 1436 1438 1439 1438 1439 1441 1436 1436 1438 1442 1445 1435 1447 1425 1416 1416 1419 1420 1425 1432 1436
1501 1498 1495 1492 1494 1492 1492 1488 1486 1487 1512 1470 1477 1475 1474 1475 1470 1464 1462 1454 1451 1445 1444 1434 1441 1436 1427 1429 1430 1430 1429 1430 1432 1437 1439 1430 1445 1420 1408 1411 1411 1411 1414 1423 1429
1502 1498 1496 1494 1494 1493 1489 1488 1488 1489 1489 1476 1483 1479 1474 1471 1469 1465 1463 1457 1450 1442 1431 1427 1428 1437 1429 1433 1435 1436 1433 1421 1425 1434 1446 1424 1436 1423 1414 1398 1402 1406 1408 1416 1425
1503 1500 1497 1497 1494 1492 1489 1489 1490 1499 1488 1488 1485 1481 1478 1475 1471 1467 1463 1460 1464 1451 1433 1423 1421 1421 1429 1430 1428 1435 1434 1431 1438 1447 1440 1417 1426 1417 1396 1388 1390 1399 1405 1412 1421
1505 1503 1502 1500 1495 1490 1489 1490 1514 1498 1496 1495 1491 1485 1483 1480 1476 1472 1466 1465 1471 1463 1453 1438 1423 1413 1414 1419 1430 1428 1427 1429 1442 1439 1430 1413 1420 1406 1390 1381 1384 1390 1397 1406 1416
1506 1505 1505 1501 1495 1491 1492 1517 1516 1504 1499 1495 1491 1488 1487 1480 1477 1473 1470 1474 1473 1463 1463 1449 1425 1415 1415 1417 1422 1429 1430 1416 1423 1421 1428 1415 1404 1396 1389 1379 1382 1386 1391 1399 1408
1507 1506 1505 1502 1500 1498 1498 1506 1505 1500 1497 1494 1495 1490 1488 1481 1477 1474 1472 1470 1466 1461 1458 1454 1443 1419 1413 1413 1415 1425 1412 1419 1416 1433 1432 1415 1408 1407 1386 1383 1380 1379 1383 1391 1402
1506 1508 1509 1504 1502 1500 1513 1505 1501 1498 1495 1493 1490 1488 1483 1481 1478 1475 1473 1467 1465 1462 1456 1458 1450 1428 1419 1411 1415 1413 1415 1412 1411 1414 1427 1424 1413 1402 1404 1393 1377 1373 1375 1385 1394
1509 1513 1510 1507 1506 1504 1510 1503 1500 1497 1495 1490 1486 1482 1480 1479 1479 1476 1470 1464 1458 1458 1459 1455 1452 1445 1425 1410 1412 1407 1405 1406 1426 1422 1419 1426 1420 1407 1403 1399 1386 1371 1366 1379 1389
1513 1515 1512 1507 1518 1515 1507 1504 1501 1497 1493 1490 1488 1484 1482 1481 1481 1470 1464 1459 1458 1461 1464 1460 1454 1445 1409 1412 1416 1409 1406 1399 1402 1417 1428 1437 1423 1408 1401 1408 1398 1383 1375 1376 1387
1515 1520 1516 1513 1512 1512 1511 1507 1503 1496 1491 1490 1487 1482 1480 1476 1471 1470 1465 1458 1458 1460 1462 1460 1457 1457 1451 1441 1434 1419 1413 1409 1405 1423 1424 1429 1424 1422 1419 1418 1405 1391 1381 1379 1384
1517 1519 1520 1525 1516 1514 1512 1510 1504 1498 1493 1493 1487 1485 1483 1480 1474 1470 1463 1460 1459 1460 1461 1460 1459 1452 1446 1442 1432 1433 1435 1430 1437 1440 1435 1442 1439 1433 1434 1432 1420 1410 1398 1399 1403
1520 1522 1521 1520 1519 1516 1515 1513 1506 1502 1498 1495 1492 1484 1481 1481 1478 1474 1469 1467 1467 1465 1463 1458 1456 1451 1437 1438 1432 1449 1454 1455 1452 1454 1449 1451 1448 1444 1439 1432 1424 1424 1419 1418 1417
1524 1526 1525 1526 1523 1522 1520 1515 1510 1507 1500 1496 1491 1486 1479 1475 1473 1471 1471 1471 1472 1471 1465 1462 1457 1450 1436 1434 1422 1446 1478 1475 1476 1474 1467 1459 1460 1450 1439 1436 1436 1433 1429 1427 1423